FENGYUN 1C DEB, 29819

Orbit data source: Space-Track

FENGYUN 1C DEB, 29819 is space debris in SSO originally from a launch on Mon, 10 May 1999 UTC launched from the Taiyaun Space Center, China (TSC). Fengyun 1C debris stems from the Chinese weather satellite Fengyun-1C, which was intentionally destroyed by a Chinese anti-satellite missile in 2007. This event dramatically increased the amount of space debris, with thousands of trackable fragments posing hazards to satellites and human spaceflight. The Fengyun 1C debris cloud has become a focal point in discussions about space sustainability and the need for international regulations to prevent the creation of new debris.

Loading next visibility...
Identifier
29819, 1999-025DM
Orbit
SSO
Country
Flag of CNCN / PRC
Related business
Manufacturer
Unknown
Mission
Spacecraft
Bus & Motor
Unknown
Mass
Unknown
Launch date (UTC)
1999-05-10 (27 years ago)
Launch vehicle
Unknown
Launch site
Taiyaun Space Center, China (TSC)
Object type
Payload
Rocket body
Debris
Shape & HBR
Unknown shape, 0.1 m
Radar Cross Section
Small (<0.1 m²)

Expand to show TLE details & history
Last TLE update: 17 hours ago

TLE from 17 hours ago
0 FENGYUN 1C DEB
1 29819U 99025DM  25354.47494881  .00000526  00000-0  31555-3 0  9993
2 29819  98.7336 337.8976 0191497  45.5254  71.8375 14.02208010967287
Epoch: 2025-12-20T11:23Z
TLE epoch observation values (Epoch: 2025-12-20T11:23:55.577Z)
Latitude
59.47856°
Longitude
-87.36267°
Altitude
855.269 km
Speed
7.452 km/s
True Right ascension
11h 31m 40s
True Declination
59° 19' 48"
Sunlit
Object was in daylight at epoch
Visualization orbit readout
Latitude
Unknown
Longitude
Unknown
Altitude
Unknown
Speed
Unknown
Apparent Right ascension
Unknown
Apparent Declination
Unknown
Sunlit
N/A
Visualization observer readout
Local Sidereal Time
03:29:00
Azimuth
Unknown
Elevation
Unknown
Doppler factor
Unknown
Orbital elements
Apogee altitude
1,022.396 km
Perigee altitude
744.286 km
Semi-major axis
7,261.478 km
Eccentricity
0.01915
Inclination
98.7336°
RAAN
337.8976°
Arg. of periapsis
45.5254°
True anomaly
73.93776°
Mean anomaly
71.8375°
Eccentric anomaly
72.88612°
Mean motion
3.50756 °/min
Orbital period
102.64 mins
BSTAR
0.00031555
Loading maneuver chart data...
Computing Atmospheric mass density...

Documentation

Showing up to 5 results
|